User: anonymous   Login
Location: Invercargill
(46.4000°S, 168.3500°E)
Time: 07:27:04
(UTC+12:00)
Language:

Vanguard 2 - Orbit

View from above orbital plane
View from above orbital plane
View from above satellite
View from above satellite

Ground track
Ground track

The orbit data is extracted from the following two-line orbital elements,

1    11U 59001A   19200.19093037  .00000018  00000-0 -49835-6 0  9996
2    11  32.8656 230.2915 1467924 164.5569 200.5208 11.85613859577031
Epoch (UTC): 19 July 2019 04:34:56
Eccentricity: 0.1467924
inclination: 32.8656°
perigee height: 553 km
apogee height: 2938 km
right ascension of ascending node: 230.2915°
argument of perigee: 164.5569°
revolutions per day: 11.85613859
mean anomaly at epoch: 200.5208°
orbit number at epoch: 57703

The dashed part of the orbit path shows where the satellite is in the earth's shadow,  

DLR